Location: Culleoka
(33.1312°N, 96.4919°W)
Time: 21:22:30
(UTC+00:00)

Cosmos 1500 Rocket - Pass Details

Date: 08 July 2022
Orbit: 602 x 631 km, 82.5° (Epoch: 13 August)

Event Time Altitude Azimuth Distance (km) Brightness Sun altitude
Exits shadow 09:18:02 43° 281° (W) 892 4.1 -21.6°
Drops below altitude 10° 09:22:15 10° 351° (N) 2,015 6.7 -21.1°
Sets 09:24:36 0° 359° (N) 2,928 7.7 -20.7°
